Zurück zum Katalog

FENGYUN 1C DEB

AktivSSO
NORAD 46447·DEBRIS·🇨🇳 China

Gestartet May 10, 1999 von Taiyuan Satellite Launch Center

Loading…

Nächste Überflüge (nächste 24 Stunden)

TLE

AktuellSource: Space-Track

Epoche: Sep 12, 2026, 06:07 UTC

1 46447U 99025EZC 26255.25545374  .00000862  00000-0  29048-3 0  9997
2 46447  98.4721 248.2993 0162136 334.3456  24.9748 14.32486433831376

Verfolge FENGYUN 1C DEB in Echtzeit mit AllMySat

Download on the App Store